TimeCST,TemperatureF,Dew PointF,Humidity,Sea Level PressureIn,VisibilityMPH,Wind Direction,Wind SpeedMPH,Gust SpeedMPH,PrecipitationIn,Events,Conditions,WindDirDegrees,DateUTC
12:15 AM,27.5,23.4,84,30.12,10.0,Calm,Calm,-,N/A,,Mostly Cloudy,0,2013-03-04 06:15:00
12:35 AM,28.6,24.8,86,30.12,10.0,Calm,Calm,-,N/A,,Mostly Cloudy,0,2013-03-04 06:35:00
12:55 AM,29.8,25.2,83,30.12,10.0,Calm,Calm,-,N/A,,Mostly Cloudy,0,2013-03-04 06:55:00
1:15 AM,30.7,26.1,83,30.12,10.0,Calm,Calm,-,N/A,,Overcast,0,2013-03-04 07:15:00
1:55 AM,30.0,27.1,89,30.13,10.0,Calm,Calm,-,N/A,,Scattered Clouds,0,2013-03-04 07:55:00
2:15 AM,30.2,27.1,88,30.12,10.0,Calm,Calm,-,N/A,,Scattered Clouds,0,2013-03-04 08:15:00
2:35 AM,30.6,27.5,88,30.12,10.0,Calm,Calm,-,N/A,,Scattered Clouds,0,2013-03-04 08:35:00
2:55 AM,30.6,27.7,89,30.12,10.0,Calm,Calm,-,N/A,,Scattered Clouds,0,2013-03-04 08:55:00
3:15 AM,29.8,26.6,88,30.13,10.0,Calm,Calm,-,N/A,,Clear,0,2013-03-04 09:15:00
3:35 AM,29.3,25.5,86,30.13,10.0,Calm,Calm,-,N/A,,Clear,0,2013-03-04 09:35:00
3:55 AM,29.1,25.7,87,30.12,10.0,Calm,Calm,-,N/A,,Clear,0,2013-03-04 09:55:00
4:15 AM,28.4,25.5,89,30.12,10.0,Calm,Calm,-,N/A,,Clear,0,2013-03-04 10:15:00
4:35 AM,27.5,25.3,92,30.12,10.0,Calm,Calm,-,N/A,,Clear,0,2013-03-04 10:35:00
4:55 AM,27.1,24.6,90,30.13,10.0,NE,3.5,-,N/A,,Clear,50,2013-03-04 10:55:00
5:15 AM,26.8,24.3,90,30.13,10.0,Calm,Calm,-,N/A,,Clear,0,2013-03-04 11:15:00
5:35 AM,27.3,23.9,87,30.13,10.0,Calm,Calm,-,N/A,,Clear,0,2013-03-04 11:35:00
5:55 AM,28.2,23.4,82,30.13,10.0,Calm,Calm,-,N/A,,Clear,0,2013-03-04 11:55:00
6:15 AM,28.9,23.5,80,30.13,10.0,Calm,Calm,-,N/A,,Clear,0,2013-03-04 12:15:00
6:35 AM,30.0,22.8,75,30.14,10.0,Calm,Calm,-,N/A,,Clear,0,2013-03-04 12:35:00
6:55 AM,32.9,20.7,61,30.13,10.0,ESE,5.8,-,N/A,,Clear,120,2013-03-04 12:55:00
7:15 AM,35.2,18.5,51,30.15,10.0,Calm,Calm,-,N/A,,Clear,0,2013-03-04 13:15:00
7:35 AM,35.6,19.2,51,30.15,10.0,SE,4.6,-,N/A,,Clear,140,2013-03-04 13:35:00
7:55 AM,36.1,18.7,49,30.16,10.0,SE,4.6,-,N/A,,Clear,140,2013-03-04 13:55:00
8:15 AM,37.2,18.7,47,30.16,10.0,ESE,5.8,-,N/A,,Clear,120,2013-03-04 14:15:00
8:35 AM,39.7,19.8,45,30.15,10.0,SE,4.6,-,N/A,,Clear,140,2013-03-04 14:35:00
8:55 AM,41.5,21.0,44,30.15,10.0,SE,4.6,-,N/A,,Clear,130,2013-03-04 14:55:00
9:15 AM,42.4,21.7,44,30.16,10.0,SSE,6.9,-,N/A,,Clear,160,2013-03-04 15:15:00
9:35 AM,43.2,21.0,41,30.15,10.0,SE,5.8,-,N/A,,Clear,140,2013-03-04 15:35:00
9:55 AM,43.7,20.7,40,30.13,10.0,SE,5.8,-,N/A,,Clear,130,2013-03-04 15:55:00
10:15 AM,43.7,20.8,40,30.13,10.0,SE,4.6,-,N/A,,Clear,140,2013-03-04 16:15:00
10:35 AM,44.4,22.3,42,30.12,10.0,SSE,5.8,-,N/A,,Clear,160,2013-03-04 16:35:00
10:55 AM,46.0,23.2,41,30.12,10.0,SE,10.4,-,N/A,,Clear,140,2013-03-04 16:55:00
11:15 AM,49.1,23.9,37,30.10,10.0,South,10.4,16.1,N/A,,Clear,170,2013-03-04 17:15:00
11:35 AM,51.3,24.8,36,30.10,10.0,South,9.2,-,N/A,,Clear,170,2013-03-04 17:35:00
11:55 AM,52.7,24.3,33,30.08,10.0,South,9.2,-,N/A,,Clear,180,2013-03-04 17:55:00
12:15 PM,53.8,24.4,32,30.07,10.0,SSE,6.9,17.3,N/A,,Clear,150,2013-03-04 18:15:00
12:35 PM,55.6,26.1,32,30.06,10.0,South,11.5,16.1,N/A,,Clear,180,2013-03-04 18:35:00
12:55 PM,57.7,26.8,31,30.04,10.0,South,12.7,17.3,N/A,,Clear,180,2013-03-04 18:55:00
1:15 PM,57.9,26.6,30,30.01,10.0,SSE,11.5,20.7,N/A,,Clear,160,2013-03-04 19:15:00
1:35 PM,57.9,26.2,30,30.01,10.0,South,15.0,18.4,N/A,,Clear,180,2013-03-04 19:35:00
1:55 PM,57.7,26.4,30,29.99,10.0,SSE,12.7,-,N/A,,Clear,150,2013-03-04 19:55:00
2:15 PM,58.6,27.0,30,29.99,10.0,SSE,12.7,17.3,N/A,,Clear,160,2013-03-04 20:15:00
2:35 PM,59.9,27.7,29,29.98,10.0,SSE,11.5,18.4,N/A,,Clear,160,2013-03-04 20:35:00
2:55 PM,61.0,28.4,29,29.98,10.0,SE,12.7,17.3,N/A,,Clear,140,2013-03-04 20:55:00
3:15 PM,59.7,28.6,31,29.97,10.0,South,12.7,18.4,N/A,,Clear,180,2013-03-04 21:15:00
3:35 PM,59.4,29.3,32,29.97,10.0,South,13.8,-,N/A,,Clear,180,2013-03-04 21:35:00
3:55 PM,59.4,29.5,32,29.96,10.0,SSE,10.4,-,N/A,,Clear,160,2013-03-04 21:55:00
4:15 PM,59.4,30.0,33,29.95,10.0,SSE,11.5,17.3,N/A,,Clear,160,2013-03-04 22:15:00
4:35 PM,58.8,30.0,34,29.92,10.0,SSE,10.4,17.3,N/A,,Clear,150,2013-03-04 22:35:00
4:55 PM,58.3,30.0,34,29.91,10.0,SSE,12.7,19.6,N/A,,Clear,150,2013-03-04 22:55:00
5:35 PM,57.4,30.6,36,29.94,10.0,South,13.8,18.4,N/A,,Clear,170,2013-03-04 23:35:00
5:55 PM,56.8,30.4,37,29.93,10.0,SSE,12.7,17.3,N/A,,Clear,160,2013-03-04 23:55:00
6:15 PM,56.3,30.4,37,29.94,10.0,SSE,16.1,21.9,N/A,,Clear,160,2013-03-05 00:15:00
6:35 PM,55.9,30.9,39,29.94,10.0,SSE,11.5,17.3,N/A,,Clear,160,2013-03-05 00:35:00
6:55 PM,55.4,30.9,39,29.94,10.0,SSE,9.2,18.4,N/A,,Clear,160,2013-03-05 00:55:00
7:15 PM,54.1,31.1,41,29.95,10.0,SSE,11.5,-,N/A,,Clear,160,2013-03-05 01:15:00
7:35 PM,53.8,31.1,42,29.95,10.0,SSE,10.4,-,N/A,,Clear,160,2013-03-05 01:35:00
7:55 PM,53.2,31.1,43,29.95,10.0,SSE,9.2,-,N/A,,Clear,160,2013-03-05 01:55:00
8:35 PM,53.1,31.5,44,29.96,10.0,SSE,9.2,-,N/A,,Clear,160,2013-03-05 02:35:00
8:55 PM,52.9,31.8,45,29.96,10.0,SSE,10.4,-,N/A,,Clear,160,2013-03-05 02:55:00
9:15 PM,52.5,32.0,46,29.97,10.0,SSE,9.2,-,N/A,,Clear,160,2013-03-05 03:15:00
9:35 PM,52.2,32.2,47,29.99,10.0,South,9.2,-,N/A,,Scattered Clouds,180,2013-03-05 03:35:00
9:55 PM,52.2,33.3,49,29.99,10.0,South,8.1,-,N/A,,Mostly Cloudy,170,2013-03-05 03:55:00
10:15 PM,52.9,34.5,50,29.99,10.0,South,9.2,-,N/A,,Overcast,170,2013-03-05 04:15:00
10:55 PM,52.9,36.9,55,29.98,10.0,South,11.5,-,N/A,,Scattered Clouds,180,2013-03-05 04:55:00
11:15 PM,52.7,37.6,56,29.95,10.0,South,18.4,-,N/A,,Scattered Clouds,180,2013-03-05 05:15:00
11:35 PM,52.7,38.5,58,29.94,10.0,South,16.1,23.0,N/A,,Scattered Clouds,180,2013-03-05 05:35:00
11:55 PM,52.5,39.7,62,29.94,10.0,South,19.6,27.6,N/A,,Clear,190,2013-03-05 05:55:00